Location: Bergfeld
(52.0500°N, 11.7833°E)
Time: 18:15:19
(UTC+00:00)

Cosmos 2263 - Pass Details

Date: 17 February 2020
Orbit: 832 x 865 km, 70.9° (Epoch: 29 March)

Event Time Altitude Azimuth Distance (km) Brightness Sun altitude
Exits shadow 04:58:31 - 326° (NW) 3,212 6.9 -13.9°
Reaches altitude 10° 05:00:26 10° 323° (NW) 2,493 6.3 -13.6°
Maximum altitude 05:06:00 54° 247° (WSW) 1,020 4.3 -12.8°
Drops below altitude 10° 05:11:28 10° 171° (S) 2,454 6.8 -11.9°
Sets 05:13:56 0° 167° (SSE) 3,380 7.6 -11.6°
